Weather History for Lincoln, IL

Change the Weather History Date:

Friday, May 16, 2014

  Actual Average (KSPI) Record (KSPI)
Temperature  
Mean Temperature 48 °F 64 °F  
Max Temperature 53 °F 75 °F 93 °F (2001)
Min Temperature 42 °F 53 °F 33 °F (1997)
Degree Days  
Heating Degree Days 18 4  
Month to date heating degree days 86  
Since 1 July heating degree days 5431  
Cooling Degree Days 0 3  
Month to date cooling degree days 28  
Year to date cooling degree days 48  
Moisture  
Dew Point 40 °F    
Average Humidity 80    
Maximum Humidity 93    
Minimum Humidity 60    
Precipitation  
Precipitation 0.00 in 0.13 in 1.62 in (1995)
Month to date precipitation 2.14  
Year to date precipitation 11.91  
Snow  
Snow 0.00 in 0.00 in 0.00 in ()
Month to date snowfall 0.0  
Since 1 July snowfall 20.9  
Snow Depth -    
Sea Level Pressure  
Sea Level Pressure 30.03 in    
Wind  
Wind Speed 4 mph (NW)    
Max Wind Speed 15 mph    
Max Gust Speed 21 mph    
Visibility 10 miles    
Events Rain    
T = Trace of Precipitation, MM = Missing Value Source: NWS Daily Summary

Daily Weather History Graph

Daily Weather History Graph

Search for Another Location

Airport:

Trip Planner

Search our weather history database for the weather conditions in past years. The results will help you decide how hot, cold, wet, or windy it might be!

Date:

Astronomy

May. 16, 2014 Rise Set
Actual Time 5:40 AM CDT 8:07 PM CDT
Civil Twilight 5:09 AM CDT 8:38 PM CDT
Nautical Twilight 4:31 AM CDT 9:16 PM CDT
Astronomical Twilight 3:49 AM CDT 9:59 PM CDT
Moon 10:14 PM CDT (5/16) 7:22 AM CDT (5/16)
Length of Visible Light 15h 28m
Length of Day
14h 26m
Waning Gibbous, 95% of the Moon is Illuminated
May 16
Waning Gibbous
May 21
Last Quarter
May 28
New
Jun 5
First Quarter
Jun 12
Full

Hourly Weather History & Observations

Time (CDT) Temp. Windchill Dew Point Humidity Pressure Visibility Wind Dir Wind Speed Gust Speed Precip Events Conditions
12:15 AM 46.4 °F 42.4 °F 44.6 °F 93% 30.02 in 10.0 mi WNW 8.1 mph - N/A Rain Light Rain
12:35 AM 45.7 °F 42.0 °F 40.3 °F 81% 30.02 in 10.0 mi WNW 6.9 mph - N/A   Overcast
12:55 AM 45.9 °F - 40.5 °F 81% 30.01 in 10.0 mi Calm Calm - N/A Rain Light Rain
1:15 AM 46.0 °F - 40.8 °F 82% 30.00 in 10.0 mi Calm Calm - N/A   Overcast
1:35 AM 45.9 °F - 41.2 °F 84% 29.99 in 10.0 mi Calm Calm - N/A   Overcast
1:55 AM 45.5 °F - 41.5 °F 86% 29.99 in 10.0 mi Calm Calm - N/A   Overcast
2:15 AM 44.6 °F - 41.2 °F 88% 29.99 in 10.0 mi Calm Calm - N/A   Overcast
2:35 AM 44.6 °F - 40.8 °F 87% 29.98 in 10.0 mi Calm Calm - N/A   Scattered Clouds
2:55 AM 44.1 °F - 40.8 °F 88% 29.98 in 10.0 mi Calm Calm - N/A   Clear
3:15 AM 43.7 °F 42.1 °F 40.8 °F 90% 29.98 in 10.0 mi West 3.5 mph - N/A   Clear
3:35 AM 43.7 °F - 41.0 °F 90% 29.97 in 10.0 mi Calm Calm - N/A   Clear
3:55 AM 43.2 °F - 40.6 °F 91% 29.97 in 10.0 mi Calm Calm - N/A   Clear
4:15 AM 42.8 °F - 40.8 °F 93% 29.97 in 10.0 mi Calm Calm - N/A   Scattered Clouds
4:35 AM 43.3 °F - 41.0 °F 91% 29.97 in 10.0 mi Calm Calm - N/A   Mostly Cloudy
4:55 AM 42.8 °F 41.1 °F 40.5 °F 91% 29.97 in 10.0 mi West 3.5 mph - N/A   Scattered Clouds
5:15 AM 43.0 °F - 40.8 °F 92% 29.98 in 10.0 mi Calm Calm - N/A   Mostly Cloudy
5:35 AM 43.2 °F 41.5 °F 41.0 °F 92% 29.97 in 10.0 mi WSW 3.5 mph - N/A   Overcast
5:55 AM 43.2 °F - 41.0 °F 92% 29.97 in 10.0 mi Calm Calm - N/A   Overcast
6:15 AM 43.5 °F 41.9 °F 41.0 °F 91% 29.97 in 10.0 mi SW 3.5 mph - N/A   Overcast
6:35 AM 43.7 °F - 41.4 °F 91% 29.98 in 10.0 mi Calm Calm - N/A   Overcast
6:55 AM 44.1 °F 42.5 °F 41.9 °F 92% 29.98 in 10.0 mi SW 3.5 mph - N/A   Overcast
7:15 AM 43.7 °F 42.1 °F 41.5 °F 92% 29.98 in 3.0 mi NW 3.5 mph - N/A Rain Rain
7:35 AM 42.8 °F - 40.6 °F 92% 29.99 in 2.5 mi Calm Calm - N/A Rain Rain
7:55 AM 43.0 °F - 41.0 °F 93% 29.99 in 5.0 mi Calm Calm - N/A Rain Light Rain
8:15 AM 44.8 °F 43.3 °F 42.6 °F 92% 29.99 in 10.0 mi WSW 3.5 mph - N/A   Overcast
8:35 AM 45.5 °F 44.2 °F 43.0 °F 91% 29.99 in 10.0 mi West 3.5 mph - N/A   Overcast
8:55 AM 45.7 °F - 42.1 °F 87% 29.99 in 10.0 mi Calm Calm - N/A   Overcast
9:15 AM 47.7 °F - 42.3 °F 82% 29.99 in 10.0 mi West 6.9 mph - N/A   Overcast
9:35 AM 47.3 °F - 41.4 °F 80% 29.99 in 10.0 mi West 6.9 mph - N/A   Overcast
9:55 AM 48.4 °F - 41.4 °F 77% 29.99 in 10.0 mi West 8.1 mph - N/A   Overcast
10:15 AM 49.3 °F - 41.2 °F 74% 29.99 in 10.0 mi WNW 3.5 mph - N/A   Overcast
10:35 AM 51.1 °F - 41.5 °F 70% 29.99 in 10.0 mi NW 6.9 mph - N/A   Overcast
10:55 AM 52.0 °F - 40.3 °F 64% 29.98 in 10.0 mi WNW 5.8 mph - N/A   Scattered Clouds
11:15 AM 50.9 °F - 40.5 °F 67% 29.99 in 10.0 mi NW 6.9 mph - N/A   Mostly Cloudy
11:35 AM 51.8 °F - 39.9 °F 64% 29.99 in 10.0 mi NW 6.9 mph - N/A   Overcast
11:55 AM 53.2 °F - 40.6 °F 62% 29.99 in 10.0 mi NW 6.9 mph - N/A   Mostly Cloudy
12:15 PM 53.2 °F - 39.7 °F 60% 29.99 in 10.0 mi West 4.6 mph - N/A Rain Light Rain
12:35 PM 53.6 °F - 40.3 °F 61% 29.99 in 10.0 mi WNW 9.2 mph - N/A   Overcast
12:55 PM 50.0 °F - 41.5 °F 73% 29.99 in 10.0 mi West 5.8 mph - N/A   Overcast
1:15 PM 50.4 °F - 42.3 °F 74% 29.99 in 10.0 mi NW 6.9 mph 17.3 mph N/A   Overcast
1:35 PM 52.5 °F - 43.2 °F 70% 30.00 in 10.0 mi NNW 8.1 mph - N/A   Mostly Cloudy
1:55 PM 51.3 °F - 42.4 °F 72% 30.01 in 10.0 mi NW 8.1 mph 18.4 mph N/A   Overcast
2:15 PM 50.2 °F - 42.6 °F 75% 30.02 in 10.0 mi NNW 10.4 mph 19.6 mph N/A   Overcast
2:35 PM 48.7 °F - 41.5 °F 76% 30.03 in 10.0 mi NNW 15.0 mph 20.7 mph N/A   Overcast
2:55 PM 46.8 °F - 40.6 °F 79% 30.04 in 10.0 mi North 10.4 mph 17.3 mph N/A   Overcast
3:15 PM 48.7 °F - 41.2 °F 75% 30.04 in 10.0 mi NNW 12.7 mph 18.4 mph N/A   Overcast
3:35 PM 47.1 °F - 39.4 °F 74% 30.05 in 10.0 mi NNW 13.8 mph 19.6 mph N/A   Overcast
3:55 PM 47.3 °F - 39.7 °F 75% 30.05 in 10.0 mi NNW 6.9 mph - N/A   Overcast
4:15 PM 47.3 °F - 39.9 °F 76% 30.06 in 10.0 mi NNW 5.8 mph - N/A   Overcast
4:35 PM 47.5 °F - 39.7 °F 75% 30.06 in 10.0 mi North 8.1 mph - N/A   Overcast
4:55 PM 48.4 °F - 39.0 °F 70% 30.07 in 10.0 mi NNW 8.1 mph - N/A   Overcast
5:15 PM 49.5 °F - 39.9 °F 70% 30.06 in 10.0 mi North 10.4 mph - N/A   Overcast
5:35 PM 50.0 °F - 39.0 °F 66% 30.07 in 10.0 mi North 9.2 mph - N/A   Overcast
5:55 PM 50.2 °F - 38.5 °F 64% 30.07 in 10.0 mi NNW 5.8 mph - N/A   Mostly Cloudy
6:15 PM 49.1 °F - 37.9 °F 65% 30.07 in 10.0 mi NNW 6.9 mph - N/A   Mostly Cloudy
6:35 PM 49.1 °F - 39.0 °F 68% 30.08 in 10.0 mi North 6.9 mph - N/A   Mostly Cloudy
6:55 PM 49.6 °F - 39.0 °F 67% 30.08 in 10.0 mi North 5.8 mph - N/A   Mostly Cloudy
7:15 PM 49.3 °F - 37.2 °F 63% 30.09 in 10.0 mi NNW 5.8 mph - N/A   Overcast
7:35 PM 49.1 °F - 36.9 °F 63% 30.10 in 10.0 mi North 4.6 mph - N/A   Overcast
7:55 PM 48.2 °F - 37.6 °F 67% 30.10 in 10.0 mi Calm Calm - N/A   Overcast
8:15 PM 45.9 °F 44.6 °F 38.3 °F 75% 30.09 in 10.0 mi North 3.5 mph - N/A   Scattered Clouds
8:35 PM 45.5 °F - 38.3 °F 76% 30.09 in 10.0 mi Calm Calm - N/A   Clear
8:55 PM 44.6 °F - 38.3 °F 79% 30.10 in 10.0 mi Calm Calm - N/A   Clear
9:15 PM 43.7 °F - 38.5 °F 82% 30.11 in 10.0 mi Calm Calm - N/A   Clear
9:35 PM 43.0 °F - 38.7 °F 85% 30.12 in 10.0 mi Calm Calm - N/A   Clear
9:55 PM 42.4 °F - 38.7 °F 86% 30.13 in 10.0 mi Calm Calm - N/A   Scattered Clouds
10:15 PM 43.0 °F - 39.2 °F 86% 30.13 in 10.0 mi Calm Calm - N/A   Mostly Cloudy
10:35 PM 43.0 °F - 38.7 °F 85% 30.13 in 10.0 mi Calm Calm - N/A   Scattered Clouds
10:55 PM 42.8 °F - 39.2 °F 87% 30.13 in 10.0 mi Calm Calm - N/A   Mostly Cloudy
11:15 PM 43.9 °F - 40.8 °F 89% 30.14 in 10.0 mi Calm Calm - N/A Rain Rain
11:35 PM 44.1 °F - 41.0 °F 89% 30.14 in 10.0 mi Calm Calm - N/A Rain Light Rain
11:55 PM 43.9 °F - 41.4 °F 91% 30.14 in 10.0 mi Calm Calm - N/A   Overcast